Location: Unspecified
(90.0000°S, 0.0000°E)
Time: 20:08:25
(UTC+00:00)

NOAA 15 - Visible Passes

Search period start: 24 August 2019 00:00
Search period end: 03 September 2019 00:00
Orbit: 797 x 813 km, 98.7° (Epoch: 24 August)

Date Brightness Start Highest point End Pass type
(mag) Time Alt. Az. Time Alt. Az. Time Alt. Az.
24 Aug 5.2 01:21:37 10° ENE 01:26:35 35° N 01:31:31 10° WNW visible
24 Aug 5.2 03:02:39 10° NE 03:07:37 35° NNW 03:12:33 10° W visible
24 Aug 5.2 04:43:42 10° N 04:48:39 35° WNW 04:53:36 10° WSW visible
24 Aug 5.2 06:24:45 10° NNW 06:29:42 35° W 06:34:39 10° SSW visible
24 Aug 5.2 08:05:48 10° NW 08:10:45 35° WSW 08:15:41 10° S visible
24 Aug 5.2 09:46:50 10° WNW 09:51:47 35° SW 09:56:44 10° SSE visible
24 Aug 5.2 11:27:52 10° W 11:32:50 35° SSW 11:37:47 10° SE visible
24 Aug 5.2 13:08:56 10° WSW 13:13:53 35° S 13:18:49 10° ESE visible
24 Aug 5.2 14:49:58 10° SW 14:54:56 35° SSE 14:59:52 10° E visible
24 Aug 5.2 16:31:01 10° SSW 16:35:58 35° SE 16:40:55 10° ENE visible
24 Aug 5.2 18:12:03 10° SSE 18:17:01 35° E 18:21:57 10° NE visible
24 Aug 5.2 19:53:06 10° SE 19:58:03 35° ENE 20:03:00 10° N visible
24 Aug 5.2 21:34:08 10° ESE 21:39:06 35° NE 21:44:02 10° NNW visible
24 Aug 5.2 23:15:11 10° E 23:20:09 35° NNE 23:25:05 10° NW visible
25 Aug 5.2 00:56:14 10° ENE 01:01:12 35° N 01:06:08 10° WNW visible
25 Aug 5.2 02:37:16 10° NE 02:42:14 35° NNW 02:47:11 10° W visible
25 Aug 5.2 04:18:19 10° NNE 04:23:17 35° NW 04:28:14 10° WSW visible
25 Aug 5.2 05:59:22 10° N 06:04:19 35° WNW 06:09:16 10° SW visible
25 Aug 5.2 07:40:25 10° NW 07:45:22 35° W 07:50:18 10° SSW visible
25 Aug 5.2 09:21:27 10° WNW 09:26:24 35° SW 09:31:21 10° SSE visible
25 Aug 5.2 11:02:29 10° W 11:07:27 35° SSW 11:12:24 10° SE visible
25 Aug 5.2 12:43:33 10° WSW 12:48:30 35° S 12:53:26 10° ESE visible
25 Aug 5.2 14:24:35 10° SW 14:29:33 35° SSE 14:34:29 10° E visible
25 Aug 5.2 16:05:38 10° SSW 16:10:35 35° SE 16:15:32 10° ENE visible
25 Aug 5.2 17:46:40 10° S 17:51:38 35° ESE 17:56:34 10° NE visible
25 Aug 5.2 19:27:43 10° SSE 19:32:40 35° E 19:37:37 10° NNE visible
25 Aug 5.2 21:08:46 10° ESE 21:13:43 35° ENE 21:18:40 10° N visible
25 Aug 5.2 22:49:48 10° E 22:54:46 35° NNE 22:59:42 10° NW visible
26 Aug 5.2 00:30:51 10° ENE 00:35:48 35° N 00:40:45 10° WNW visible
26 Aug 5.2 02:11:54 10° NE 02:16:51 35° NNW 02:21:47 10° W visible
26 Aug 5.2 03:52:57 10° NNE 03:57:54 35° NW 04:02:50 10° WSW visible
26 Aug 5.2 05:33:59 10° N 05:38:56 35° WNW 05:43:53 10° SW visible
26 Aug 5.2 07:15:01 10° NNW 07:19:59 35° W 07:24:55 10° SSW visible
26 Aug 5.2 08:56:05 10° NW 09:01:02 35° WSW 09:05:58 10° S visible
26 Aug 5.2 10:37:07 10° W 10:42:04 35° SW 10:47:01 10° SSE visible
26 Aug 5.2 12:18:10 10° WSW 12:23:07 35° S 12:28:04 10° SE visible
26 Aug 5.2 13:59:12 10° SW 14:04:09 35° SSE 14:09:05 10° E visible
26 Aug 5.2 15:40:15 10° SSW 15:45:12 35° SE 15:50:09 10° ENE visible
26 Aug 5.2 17:21:18 10° S 17:26:15 35° ESE 17:31:11 10° NE visible
26 Aug 5.3 19:02:20 10° SSE 19:07:17 35° E 19:12:14 10° NNE visible
26 Aug 5.2 20:43:23 10° SE 20:48:20 35° ENE 20:53:16 10° N visible
26 Aug 5.2 22:24:25 10° ESE 22:29:23 35° NE 22:34:19 10° NNW visible
27 Aug 5.3 00:05:28 10° ENE 00:10:25 35° NNE 00:15:22 10° NW visible
27 Aug 5.3 01:46:31 10° NE 01:51:28 35° NNW 01:56:24 10° WNW visible
27 Aug 5.3 03:27:33 10° NNE 03:32:31 35° NW 03:37:27 10° WSW visible
27 Aug 5.3 05:08:36 10° N 05:13:33 35° WNW 05:18:30 10° SW visible
27 Aug 5.3 06:49:39 10° NNW 06:54:36 35° W 06:59:33 10° SSW visible
27 Aug 5.3 08:30:42 10° NW 08:35:39 35° WSW 08:40:35 10° S visible
27 Aug 5.3 10:11:44 10° WNW 10:16:41 35° SW 10:21:38 10° SSE visible
27 Aug 5.3 11:52:46 10° W 11:57:44 35° SSW 12:02:40 10° SE visible
27 Aug 5.3 13:33:50 10° SW 13:38:47 35° S 13:43:43 10° ESE visible
27 Aug 5.3 15:14:52 10° SSW 15:19:49 35° SE 15:24:46 10° E visible
27 Aug 5.3 16:55:55 10° S 17:00:52 35° ESE 17:05:48 10° NE visible
27 Aug 5.3 18:36:57 10° SSE 18:41:55 35° E 18:46:51 10° NNE visible
27 Aug 5.3 20:18:01 10° SE 20:22:57 35° ENE 20:27:54 10° N visible
27 Aug 5.3 21:59:03 10° ESE 22:04:00 35° NE 22:08:56 10° NNW visible
27 Aug 5.3 23:40:06 10° E 23:45:02 35° NNE 23:49:59 10° NW visible
28 Aug 5.3 01:21:08 10° ENE 01:26:05 35° N 01:31:02 10° WNW visible
28 Aug 5.3 03:02:11 10° NE 03:07:08 35° NNW 03:12:04 10° W visible
28 Aug 5.3 04:43:13 10° N 04:48:11 35° WNW 04:53:07 10° WSW visible
28 Aug 5.3 06:24:16 10° NNW 06:29:13 35° W 06:34:10 10° SSW visible
28 Aug 5.3 08:05:19 10° NW 08:10:16 35° WSW 08:15:12 10° S visible
28 Aug 5.3 09:46:22 10° WNW 09:51:18 35° SW 09:56:14 10° SSE visible
28 Aug 5.3 11:27:24 10° W 11:32:21 35° SSW 11:37:17 10° SE visible
28 Aug 5.3 13:08:27 10° WSW 13:13:23 35° S 13:18:19 10° ESE visible
28 Aug 5.3 14:49:29 10° SW 14:54:26 35° SSE 14:59:23 10° E visible
28 Aug 5.3 16:30:32 10° SSW 16:35:29 35° SE 16:40:25 10° ENE visible
28 Aug 5.3 18:11:34 10° SSE 18:16:31 35° ESE 18:21:28 10° NE visible
28 Aug 5.3 19:52:37 10° SE 19:57:34 35° ENE 20:02:31 10° N visible
28 Aug 5.3 21:33:40 10° ESE 21:38:37 35° NE 21:43:33 10° NNW visible
28 Aug 5.3 23:14:43 10° E 23:19:40 35° NNE 23:24:36 10° NW visible
29 Aug 5.3 00:55:45 10° ENE 01:00:42 35° N 01:05:38 10° WNW visible
29 Aug 5.3 02:36:48 10° NE 02:41:45 35° NNW 02:46:41 10° W visible
29 Aug 5.3 04:17:50 10° NNE 04:22:47 35° NW 04:27:44 10° WSW visible
29 Aug 5.3 05:58:53 10° N 06:03:50 35° WNW 06:08:46 10° SW visible
29 Aug 5.3 07:39:56 10° NW 07:44:53 35° W 07:49:49 10° SSW visible
29 Aug 5.3 09:20:59 10° WNW 09:25:56 35° SW 09:30:51 10° SSE visible
29 Aug 5.3 11:02:01 10° W 11:06:58 35° SSW 11:11:54 10° SE visible
29 Aug 5.3 12:43:04 10° WSW 12:48:01 35° S 12:52:57 10° ESE visible
29 Aug 5.3 14:24:06 10° SW 14:29:03 35° SSE 14:33:59 10° E visible
29 Aug 5.3 16:05:09 10° SSW 16:10:06 35° SE 16:15:02 10° ENE visible
29 Aug 5.3 17:46:12 10° S 17:51:09 35° ESE 17:56:05 10° NE visible
29 Aug 5.3 19:27:14 10° SSE 19:32:11 35° E 19:37:07 10° NNE visible
29 Aug 5.3 21:08:17 10° ESE 21:13:14 35° ENE 21:18:10 10° N visible
29 Aug 5.3 22:49:19 10° E 22:54:17 35° NNE 22:59:13 10° NW visible
30 Aug 5.3 00:30:22 10° ENE 00:35:19 35° N 00:40:15 10° WNW visible
30 Aug 5.3 02:11:25 10° NE 02:16:22 35° NNW 02:21:17 10° W visible
30 Aug 5.3 03:52:27 10° NNE 03:57:24 35° NW 04:02:21 10° WSW visible
30 Aug 5.3 05:33:30 10° N 05:38:27 35° WNW 05:43:23 10° SW visible
30 Aug 5.3 07:14:33 10° NNW 07:19:30 35° W 07:24:26 10° SSW visible
30 Aug 5.3 08:55:36 10° NW 09:00:32 35° WSW 09:05:28 10° S visible
30 Aug 5.3 10:36:38 10° W 10:41:35 35° SW 10:46:31 10° SSE visible
30 Aug 5.3 12:17:41 10° WSW 12:22:38 35° S 12:27:34 10° SE visible
30 Aug 5.3 13:58:44 10° SW 14:03:40 35° SSE 14:08:36 10° E visible
30 Aug 5.3 15:39:46 10° SSW 15:44:43 35° SE 15:49:39 10° ENE visible
30 Aug 5.3 17:20:49 10° S 17:25:45 35° ESE 17:30:42 10° NE visible
30 Aug 5.3 19:01:51 10° SSE 19:06:48 35° E 19:11:44 10° NNE visible
30 Aug 5.3 20:42:55 10° SE 20:47:51 35° ENE 20:52:47 10° N visible
30 Aug 5.3 22:23:57 10° ESE 22:28:54 35° NE 22:33:49 10° NNW visible
31 Aug 5.3 00:04:59 10° ENE 00:09:57 35° NNE 00:14:52 10° NW visible
31 Aug 5.3 01:46:02 10° NE 01:50:59 35° NNW 01:55:55 10° WNW visible
31 Aug 5.3 03:27:05 10° NNE 03:32:02 35° NW 03:36:57 10° WSW visible
31 Aug 5.3 05:08:07 10° N 05:13:04 35° WNW 05:18:00 10° SW visible
31 Aug 5.3 06:49:10 10° NNW 06:54:07 35° W 06:59:02 10° SSW visible
31 Aug 5.3 08:30:13 10° NW 08:35:09 35° WSW 08:40:05 10° S visible
31 Aug 5.3 10:11:16 10° WNW 10:16:12 35° SW 10:21:08 10° SSE visible
31 Aug 5.3 11:52:18 10° W 11:57:15 35° SSW 12:02:11 10° SE visible
31 Aug 5.3 13:33:21 10° SW 13:38:17 35° S 13:43:13 10° ESE visible
31 Aug 5.3 15:14:23 10° SSW 15:19:20 35° SE 15:24:16 10° E visible
31 Aug 5.3 16:55:26 10° S 17:00:23 35° ESE 17:05:19 10° NE visible
31 Aug 5.3 18:36:28 10° SSE 18:41:25 35° E 18:46:21 10° NNE visible
31 Aug 5.3 20:17:31 10° SE 20:22:28 35° ENE 20:27:24 10° N visible
31 Aug 5.3 21:58:34 10° ESE 22:03:31 35° NE 22:08:26 10° NNW visible
31 Aug 5.3 23:39:37 10° E 23:44:33 35° NNE 23:49:29 10° NW visible
01 Sep 5.3 01:20:39 10° ENE 01:25:36 35° N 01:30:32 10° WNW visible
01 Sep 5.3 03:01:42 10° NE 03:06:39 35° NNW 03:11:34 10° W visible
01 Sep 5.3 04:42:44 10° N 04:47:41 35° WNW 04:52:37 10° WSW visible
01 Sep 5.3 06:23:47 10° NNW 06:28:44 35° W 06:33:40 10° SSW visible
01 Sep 5.3 08:04:50 10° NW 08:09:47 35° WSW 08:14:42 10° S visible
01 Sep 5.3 09:45:53 10° WNW 09:50:50 35° SW 09:55:45 10° SSE visible
01 Sep 5.3 11:26:55 10° W 11:31:52 35° SSW 11:36:47 10° SE visible
01 Sep 5.3 13:07:58 10° WSW 13:12:55 35° S 13:17:50 10° ESE visible
01 Sep 5.3 14:49:01 10° SW 14:53:57 35° SSE 14:58:53 10° E visible
01 Sep 5.3 16:30:04 10° SSW 16:35:00 35° SE 16:39:55 10° ENE visible
01 Sep 5.3 18:11:06 10° SSE 18:16:02 35° ESE 18:20:58 10° NE visible
01 Sep 5.3 19:52:08 10° SE 19:57:05 35° ENE 20:02:01 10° N visible
01 Sep 5.3 21:33:11 10° ESE 21:38:08 35° NE 21:43:04 10° NNW visible
01 Sep 5.3 23:14:13 10° E 23:19:10 35° NNE 23:24:05 10° NW visible
02 Sep 5.3 00:55:16 10° ENE 01:00:13 35° N 01:05:09 10° WNW visible
02 Sep 5.3 02:36:19 10° NE 02:41:16 35° NNW 02:46:11 10° W visible
02 Sep 5.3 04:17:21 10° NNE 04:22:18 35° NW 04:27:14 10° WSW visible
02 Sep 5.3 05:58:24 10° N 06:03:21 35° WNW 06:08:16 10° SW visible
02 Sep 5.3 07:39:27 10° NW 07:44:24 35° W 07:49:19 10° SSW visible
02 Sep 5.3 09:20:30 10° WNW 09:25:26 35° SW 09:30:22 10° SSE visible
02 Sep 5.3 11:01:32 10° W 11:06:29 35° SSW 11:11:24 10° SE visible
02 Sep 5.3 12:42:35 10° WSW 12:47:31 35° S 12:52:27 10° ESE visible
02 Sep 5.3 14:23:38 10° SW 14:28:34 35° SSE 14:33:30 10° E visible
02 Sep 5.3 16:04:40 10° SSW 16:09:37 35° SE 16:14:32 10° ENE visible
02 Sep 5.3 17:45:43 10° S 17:50:39 35° ESE 17:55:35 10° NE visible
02 Sep 5.3 19:26:45 10° SSE 19:31:42 35° E 19:36:37 10° NNE visible
02 Sep 5.3 21:07:48 10° ESE 21:12:45 35° ENE 21:17:40 10° N visible
02 Sep 5.3 22:48:51 10° E 22:53:48 35° NNE 22:58:43 10° NNW visible
